Location: Losili
(4.4086°N, 32.7049°E)
Time: 02:58:45
(UTC+00:00)

SWIFT - Pass Details

Date: 18 September 2019
Orbit: 545 x 561 km, 20.6° (Epoch: 22 October)

Event Time Altitude Azimuth Distance (km) Brightness Sun altitude
Rises 17:31:17 0° 296° (WNW) 2,698 6.9 -26.7°
Reaches altitude 10° 17:33:36 10° 300° (WNW) 1,803 5.7 -27.3°
Enters shadow 17:36:04 33° 313° (NW) 920 3.8 -27.9°
